{"data":{"norad_id":63439,"intl_designator":"2025-069G","name":"STARLINK-33730","alt_names":[],"object_type":"PAYLOAD","status":"ACTIVE","operator":null,"country":"US","launch_date":"2025-04-04","launch_site_code":"AFWTR","launch_vehicle":null,"mission":null,"orbit_class":"UNKNOWN","rcs_meters":null,"size_class":null,"mass_kg":null,"dimensions":null,"purposes":["comms"],"wikipedia_slug":null,"has_3d_model":false,"image_url":null,"decayed_at":null,"tle_current":{"epoch":"2026-05-24T17:03:41.705568Z","epoch_age_seconds":104039,"freshness":"FRESH","line1":"1 63439U 25069G   26144.71089937  .00023817  00000+0  55476-3 0  9998","line2":"2 63439  53.1590 146.5434 0001246  84.7479 275.3669 15.42176181 65082","mean_motion":15.42176181,"eccentricity":0.0001246,"inclination_deg":53.159,"raan_deg":146.5434,"arg_perigee_deg":84.7479,"mean_anomaly_deg":275.3669,"bstar":0.00055476,"rev_number":6508,"period_min":93.374545511801,"perigee_km":438.83846243968,"apogee_km":440.53746442057,"semimajor_km":6817.8249634301,"source":"CELESTRAK","updated_at":"2026-05-25T13:38:19.999054Z"}}}